     2              Observation         GPS                 RINEX VERSION / TYPE
teqc 1997Sep28 Duncan Agnew 19980804 18:56:00UTC            PGM / RUN BY / DATE
                                                            COMMENT
BIT 2 OF LLI FLAGS DATA COLLECTED UNDER A-S CONDITION       COMMENT
BIT 2 OF LLI FLAGS DATA COLLECTED UNDER A-S CONDITION       COMMENT
Original Marker Name: PF3A                                  COMMENT
Campaign Name: Pinyon 2-color 1991                          COMMENT
4-Character Station Name: PF3A                              COMMENT
6-Character Antenna Code: TRMSST                            COMMENT
Vertical Measurement Point: BGP                             COMMENT
Vertical Offset to Rinex Ref. Point: 0.0597                 COMMENT
Radial Measurement Point: NGP                               COMMENT
Radial Offset to Rinex Ref. Point: 0.2334                   COMMENT
Antenna Height from Field Measurement: 1.1770 m             COMMENT
Measurements could be off due to the tape measure,          COMMENT
which was pulled and not held flush with the divot.         COMMENT
Revised Rinex header created by UCSD GPS archive for        COMMENT
SCEC DC on 05-Aug-1998 (1998.217) 19:18:03 GMT              COMMENT
For assistance contact dagnew@ucsd.edu or hjohnson@ucsd.edu COMMENT
                                                            COMMENT
UNSTAMPED ROD (PF3A 2-COL)                                  MARKER NAME
McDermot SCRIPPS INSTITUTION OF OCEANOGRAPHY                OBSERVER / AGENCY
491 TRIMBLE 4000 SST NP 4.11 / SP 4.10                      REC # / TYPE / VERS
27 TR 4000SST L1/L2 GEO                                     ANT # / TYPE
 -2368849.7786 -4762274.1509  3510479.1222                  APPROX POSITION XYZ
        1.0939        0.0000        0.0000                  ANTENNA: DELTA H/E/N
     1     1     0                                          WAVELENGTH FACT L1/2
     3    C1    L1    L2                                    # / TYPES OF OBSERV
     0                                                      INTERVAL
  1991     5    16     0    25   30.000000                  TIME OF FIRST OBS
  1991     5    16     0    30    0.000000                  TIME OF LAST OBS
     0                                                      # OF SATELLITES
                                                            END OF HEADER
 91  5 16  0 25 30.0000000  0  4G13G 2G 6G12
  21010972.8444         -0.24058
  23435770.4384         -0.59255
  23050792.4064         -0.32855
  21934018.9614         -0.71557
 91  5 16  0 25 45.0000000  0  4G13G 2G 6G12
  21009055.9224     -10075.05848
  23436194.4924       2222.48845
  23054473.0474      19345.15045
  21920936.2664     -68751.29747
 91  5 16  0 26  0.0000000  0  4G13G 2G 6G12
  21007149.5164     -20090.88448
  23436627.6954       4496.79045        -0.17771
  23058171.0234      38763.58146        -0.25371
  21907871.8984    -137402.65147        -0.30172
 91  5 16  0 26 15.0000000  0  4G13G 2G 6G12
  21005256.2274     -30043.72448
  23437071.0394       6826.25145      1814.94161
  23061877.4924      58258.42545     15190.44261
  21894828.3524    -205950.41647    -53414.11962
 91  5 16  0 26 30.0000000  0  4G13G 2G 6G12
  21003373.3524     -39934.82748        -0.07672
  23437523.4924       9210.15545      3672.45061
  23065604.2424      77828.40446     30439.67361
  21881803.3054    -274395.08247   -106747.59262
 91  5 16  0 26 45.0000000  0  4G13G 2G 6G12
  21001504.1094     -49760.93148     -7656.78562
  23437987.0314      11652.00845      5575.12561
  23069345.5394      97477.13046     45750.27761
  21868799.1254    -342732.69847   -159997.66162
 91  5 16  0 27  0.0000000  0  4G13G 2G 6G12
  20999644.4144     -59522.76648    -15263.41462
  23438464.5634      14151.36145      7522.60561
  23073096.3284     117203.76545     61121.58261
  21855814.7974    -410963.41547   -213164.43262
 91  5 16  0 27 15.0000000  0  4G13G 2G 6G12
  20997800.4384     -69222.54348    -22821.67762
  23438952.2734      16706.27546      9513.37761
  23076864.3834     137005.79845     76551.63761
  21842851.9694    -479088.77947   -266249.11062
 91  5 16  0 27 30.0000000  0  4G13G 2G 6G12
  20995966.9454     -78858.53848    -30330.24562
  23439448.6724      19318.85346     11549.07761
  23080646.3054     156885.11845     92041.91561
  21829907.5314    -547106.37147   -319249.80862
 91  5 16  0 27 45.0000000  0  4G13G 2G 6G12
  20994145.6254     -88425.70248    -37785.18462
  23439957.2274      21994.36846     13633.83761
  23084447.8674     176846.83746    107596.38961
  21816986.1024    -615010.37147   -372161.99462
 91  5 16  0 28  0.0000000  0  4G13G 2G 6G12
  20992338.4924     -97919.60848    -45183.02962
  23440479.0784      24737.18145     15771.02361
  23088264.9304     196894.96746    123218.19561
  21804087.2194    -682796.08147   -424982.00262
 91  5 16  0 28 15.0000000  0  4G13G 2G 6G12
  20990547.1174    -107333.94448    -52518.87462
  23441013.7274      27553.97045     17965.86261
  23092094.1334     217035.94646    138912.36561
  21791211.1724    -750456.50947   -477704.38862
 91  5 16  0 28 30.0000000  0  4G13G 2G 6G12
  20988770.0554    -116674.51548    -59797.24062
  23441562.6884      30439.31045     20214.14161
  23095945.2424     237263.83646    154674.25661
  21778358.5314    -817996.91147   -530333.24762
 91  5 16  0 28 45.0000000  0  4G13G 2G 6G12
  20987007.1174    -125940.64348    -67017.59662
  23442126.2584      33393.91245     22516.36261
  23099811.7114     257579.33946    170504.41761
  21765530.7034    -885415.88747   -582867.48462
 91  5 16  0 29  0.0000000  0  4G13G 2G 6G12
  20985256.3134    -135140.97848    -74186.69162
  23442700.9224      36409.32545     24865.97161
  23103694.0944     277973.61946    186395.94861
  21752720.0084    -952721.57747   -635313.44662
 91  5 16  0 29 15.0000000  0  4G13G 2G 6G12
  20983517.3524    -144275.21348    -81304.28662
  23443289.7584      39486.56345     27263.75961
  23107585.9144     298447.10046    202349.20561
  21739935.2274   -1019912.74347   -687670.17362
 91  5 16  0 29 30.0000000  0  4G13G 2G 6G12
  20981793.2584    -153339.52848    -88367.39562
  23443884.7424      42629.39245     29712.64061
  23111499.0474     319003.72745    218367.24761
  21727171.8594   -1086984.97947   -739934.22462
 91  5 16  0 29 45.0000000  0  4G13G 2G 6G12
  20980079.7274    -162340.00148    -95380.75662
  23444492.8754      45832.07545     32208.17761
  23115425.0634     339637.17846    234445.14761
  21714430.1884   -1153943.74847   -792109.86562
